EN

Hourly Weather Zvony

Today, 19 October, Monday

Time Temperature Precipitation Wind Pressure Humidity
00:00 +1°C° 0 mm 4 mps 741 mmHg 90%
01:00 +1°C° 0 mm 4 mps 741 mmHg 90%
02:00 +1°C° 0 mm 4 mps 742 mmHg 90%
03:00 0°C° 0 mm 4 mps 742 mmHg 90%
04:00 0°C° 0 mm 4 mps 742 mmHg 90%
05:00 0°C° 0 mm 4 mps 742 mmHg 90%
06:00 0°C° 0.1 mm 4 mps 742 mmHg 90%
07:00 0°C° 0.1 mm 4 mps 743 mmHg 89%
08:00 0°C° 0 mm 4 mps 743 mmHg 87%
09:00 +1°C° 0.1 mm 5 mps 743 mmHg 82%
10:00 +2°C° 0.1 mm 5 mps 743 mmHg 76%
11:00 +2°C° 0.1 mm 6 mps 744 mmHg 71%
12:00 +3°C° 0.1 mm 6 mps 744 mmHg 69%
13:00 +3°C° 0.1 mm 6 mps 744 mmHg 66%
14:00 +4°C° 0.1 mm 6 mps 744 mmHg 64%
15:00 +3°C° 0.2 mm 6 mps 744 mmHg 69%
16:00 +3°C° 0.2 mm 5 mps 744 mmHg 73%
17:00 +2°C° 0.2 mm 5 mps 744 mmHg 78%
18:00 +2°C° 0 mm 5 mps 744 mmHg 79%
19:00 +1°C° 0 mm 5 mps 744 mmHg 81%
20:00 +1°C° 0 mm 5 mps 745 mmHg 83%
21:00 +1°C° 0 mm 5 mps 745 mmHg 83%
22:00 +1°C° 0 mm 5 mps 745 mmHg 84%
23:00 +1°C° 0 mm 5 mps 746 mmHg 85%

Tomorrow, 20 October, Tuesday

Time Temperature Precipitation Wind Pressure Humidity
00:00 +1°C° 0 mm 5 mps 746 mmHg 86%
01:00 +1°C° 0 mm 5 mps 746 mmHg 86%
02:00 +1°C° 0 mm 5 mps 747 mmHg 87%
03:00 +1°C° 0.3 mm 5 mps 747 mmHg 88%
04:00 +1°C° 0.3 mm 5 mps 747 mmHg 88%
05:00 +1°C° 0.3 mm 5 mps 747 mmHg 89%
06:00 +1°C° 0.2 mm 5 mps 748 mmHg 88%
07:00 0°C° 0.2 mm 5 mps 749 mmHg 87%
08:00 0°C° 0.2 mm 4 mps 749 mmHg 86%
09:00 +1°C° 0 mm 4 mps 750 mmHg 82%
10:00 +1°C° 0 mm 4 mps 751 mmHg 78%
11:00 +3°C° 0 mm 4 mps 751 mmHg 74%
12:00 +3°C° 0 mm 4 mps 752 mmHg 72%
13:00 +4°C° 0 mm 4 mps 752 mmHg 70%
14:00 +4°C° 0 mm 4 mps 753 mmHg 68%
15:00 +4°C° 0 mm 3 mps 753 mmHg 73%
16:00 +4°C° 0 mm 2 mps 753 mmHg 78%
17:00 +3°C° 0 mm 2 mps 753 mmHg 83%
18:00 +4°C° 0 mm 1 mps 753 mmHg 84%
19:00 +3°C° 0 mm 1 mps 754 mmHg 85%
20:00 +2°C° 0 mm 0 mps 754 mmHg 86%
21:00 +3°C° 0 mm 1 mps 754 mmHg 88%
22:00 +3°C° 0 mm 1 mps 754 mmHg 89%
23:00 +3°C° 0 mm 1 mps 754 mmHg 91%

Day after tomorrow, 21 October, Wednesday

Time Temperature Precipitation Wind Pressure Humidity
00:00 +3°C° 0 mm 1 mps 754 mmHg 91%
01:00 +3°C° 0 mm 1 mps 753 mmHg 91%
02:00 +3°C° 0 mm 2 mps 753 mmHg 92%
03:00 +3°C° 0 mm 2 mps 753 mmHg 90%
04:00 +3°C° 0 mm 2 mps 752 mmHg 88%
05:00 +3°C° 0 mm 2 mps 752 mmHg 87%
06:00 +2°C° 0.3 mm 3 mps 751 mmHg 89%
07:00 +2°C° 0.3 mm 3 mps 751 mmHg 91%
08:00 +1°C° 0.3 mm 4 mps 750 mmHg 93%
09:00 +3°C° 0.5 mm 3 mps 750 mmHg 93%
10:00 +3°C° 0.5 mm 3 mps 750 mmHg 93%
11:00 +3°C° 0.5 mm 3 mps 749 mmHg 93%
12:00 +4°C° 0.1 mm 3 mps 749 mmHg 93%
13:00 +5°C° 0.1 mm 2 mps 749 mmHg 93%
14:00 +5°C° 0.1 mm 2 mps 749 mmHg 93%
15:00 +5°C° 0 mm 2 mps 749 mmHg 94%
16:00 +5°C° 0 mm 2 mps 749 mmHg 95%
17:00 +5°C° 0 mm 2 mps 748 mmHg 96%
18:00 +5°C° 0 mm 2 mps 748 mmHg 96%
19:00 +6°C° 0 mm 2 mps 748 mmHg 96%
20:00 +6°C° 0 mm 2 mps 749 mmHg 96%
21:00 +6°C° 0 mm 2 mps 748 mmHg 96%
22:00 +6°C° 0 mm 2 mps 748 mmHg 96%
23:00 +6°C° 0 mm 2 mps 747 mmHg 96%

22 October, Thursday

Time Temperature Precipitation Wind Pressure Humidity
00:00 +5°C° 0 mm 3 mps 747 mmHg 95%
01:00 +5°C° 0 mm 3 mps 747 mmHg 95%
02:00 +7°C° 0 mm 3 mps 747 mmHg 94%
03:00 +7°C° 0.5 mm 3 mps 746 mmHg 95%
04:00 +6°C° 0.5 mm 4 mps 745 mmHg 95%
05:00 +6°C° 0.5 mm 4 mps 744 mmHg 95%
06:00 +7°C° 1.4 mm 4 mps 743 mmHg 95%
07:00 +7°C° 1.4 mm 5 mps 743 mmHg 94%
08:00 +8°C° 1.4 mm 5 mps 742 mmHg 93%
09:00 +8°C° 0.3 mm 5 mps 742 mmHg 92%
10:00 +8°C° 0.3 mm 5 mps 742 mmHg 91%
11:00 +10°C° 0.3 mm 4 mps 741 mmHg 90%
12:00 +10°C° 0 mm 5 mps 741 mmHg 87%
13:00 +12°C° 0 mm 5 mps 742 mmHg 85%
14:00 +13°C° 0 mm 5 mps 742 mmHg 82%
15:00 +13°C° 0.1 mm 5 mps 742 mmHg 84%
16:00 +12°C° 0.1 mm 5 mps 742 mmHg 85%
17:00 +12°C° 0.1 mm 5 mps 742 mmHg 86%
18:00 +12°C° 0.1 mm 5 mps 742 mmHg 86%
19:00 +12°C° 0.1 mm 5 mps 742 mmHg 86%
20:00 +12°C° 0.1 mm 5 mps 742 mmHg 85%
21:00 +12°C° 0.1 mm 5 mps 742 mmHg 86%
22:00 +12°C° 0.1 mm 5 mps 742 mmHg 87%
23:00 +12°C° 0.1 mm 5 mps 742 mmHg 88%

23 October, Friday

Time Temperature Precipitation Wind Pressure Humidity
00:00 +12°C° 0 mm 5 mps 742 mmHg 87%
01:00 +10°C° 0 mm 5 mps 742 mmHg 87%
02:00 +10°C° 0 mm 5 mps 742 mmHg 86%
03:00 +10°C° 0 mm 5 mps 742 mmHg 86%
04:00 +10°C° 0 mm 5 mps 742 mmHg 85%
05:00 +10°C° 0 mm 5 mps 742 mmHg 85%
06:00 +10°C° 0.1 mm 5 mps 742 mmHg 85%
07:00 +10°C° 0.1 mm 5 mps 741 mmHg 84%
08:00 +11°C° 0.1 mm 4 mps 741 mmHg 84%
09:00 +10°C° 0.1 mm 5 mps 741 mmHg 81%
10:00 +10°C° 0.1 mm 5 mps 741 mmHg 78%
11:00 +12°C° 0.1 mm 5 mps 741 mmHg 75%
12:00 +12°C° 0 mm 5 mps 741 mmHg 73%
13:00 +12°C° 0 mm 5 mps 741 mmHg 71%
14:00 +10°C° 0 mm 5 mps 741 mmHg 69%
15:00 +11°C° 0 mm 4 mps 741 mmHg 70%
16:00 +10°C° 0 mm 4 mps 741 mmHg 71%
17:00 +8°C° 0 mm 4 mps 741 mmHg 72%
18:00 +8°C° 0 mm 4 mps 741 mmHg 72%
19:00 +8°C° 0 mm 4 mps 742 mmHg 72%
20:00 +8°C° 0 mm 4 mps 742 mmHg 72%
21:00 +7°C° 0 mm 4 mps 742 mmHg 75%
22:00 +7°C° 0 mm 4 mps 742 mmHg 77%
23:00 +7°C° 0 mm 4 mps 743 mmHg 79%

24 October, Saturday

Time Temperature Precipitation Wind Pressure Humidity
00:00 +6°C° 0 mm 4 mps 743 mmHg 81%
01:00 +5°C° 0 mm 4 mps 743 mmHg 83%
02:00 +4°C° 0 mm 4 mps 744 mmHg 85%
03:00 +4°C° 0 mm 4 mps 744 mmHg 81%
04:00 +4°C° 0 mm 4 mps 744 mmHg 78%
05:00 +4°C° 0 mm 4 mps 745 mmHg 74%
06:00 +4°C° 0 mm 3 mps 745 mmHg 74%
07:00 +4°C° 0 mm 3 mps 745 mmHg 73%
08:00 +4°C° 0 mm 3 mps 746 mmHg 73%
09:00 +4°C° 0 mm 3 mps 746 mmHg 71%
10:00 +5°C° 0 mm 3 mps 747 mmHg 69%
11:00 +5°C° 0 mm 4 mps 747 mmHg 67%
12:00 +5°C° 0 mm 3 mps 747 mmHg 67%
13:00 +5°C° 0 mm 3 mps 747 mmHg 67%
14:00 +5°C° 0 mm 3 mps 748 mmHg 66%
15:00 +5°C° 0 mm 3 mps 748 mmHg 68%
16:00 +6°C° 0 mm 2 mps 748 mmHg 69%
17:00 +6°C° 0 mm 2 mps 748 mmHg 71%
18:00 +5°C° 0 mm 2 mps 748 mmHg 71%
19:00 +6°C° 0 mm 1 mps 749 mmHg 72%
20:00 +6°C° 0 mm 1 mps 749 mmHg 72%
21:00 +6°C° 0 mm 1 mps 749 mmHg 73%
22:00 +6°C° 0 mm 1 mps 750 mmHg 73%
23:00 +6°C° 0 mm 1 mps 750 mmHg 74%

25 October, Sunday

Time Temperature Precipitation Wind Pressure Humidity
00:00 +6°C° 0 mm 1 mps 750 mmHg 75%
01:00 +6°C° 0 mm 1 mps 750 mmHg 76%
02:00 +6°C° 0 mm 1 mps 750 mmHg 77%
03:00 +5°C° 0 mm 1 mps 751 mmHg 79%
04:00 +5°C° 0 mm 1 mps 751 mmHg 82%
05:00 +4°C° 0 mm 1 mps 751 mmHg 85%
06:00 +4°C° 0 mm 1 mps 751 mmHg 85%
07:00 +4°C° 0 mm 1 mps 752 mmHg 86%
08:00 +4°C° 0 mm 1 mps 752 mmHg 87%
09:00 +5°C° 0 mm 1 mps 753 mmHg 79%
10:00 +6°C° 0 mm 1 mps 753 mmHg 71%
11:00 +7°C° 0 mm 1 mps 754 mmHg 64%
12:00 +7°C° 0 mm 1 mps 754 mmHg 63%
13:00 +7°C° 0 mm 2 mps 754 mmHg 62%
14:00 +7°C° 0 mm 2 mps 754 mmHg 61%
15:00 +7°C° 0 mm 1 mps 754 mmHg 66%
16:00 +6°C° 0 mm 1 mps 754 mmHg 71%
17:00 +5°C° 0 mm 1 mps 755 mmHg 76%
18:00 +5°C° 0 mm 1 mps 755 mmHg 77%
19:00 +4°C° 0 mm 1 mps 755 mmHg 78%
20:00 +3°C° 0 mm 0 mps 756 mmHg 80%
21:00 +2°C° 0 mm 0 mps 756 mmHg 81%
22:00 +2°C° 0 mm 0 mps 756 mmHg 83%
23:00 +2°C° 0 mm 0 mps 756 mmHg 85%
Show more

We Need Your Consent

Meteoprog and our Service Providers may store and access personal data such as cookies, device identifiers or other similar technologies on your device and process such data to personalise content and ads, as well as provide social media features and to analyse the traffic.

  • Store and/or access information on your device

    Cookies, device identifiers or other information can be stored or accessed on your device for the purposes indicated above.

  • Personalised ads and content, ad and content measurement, audience insights, and products development

    Ads and content can be personalised based on a profile. More data can be added to better personalise ads and content. Ad and content performance can be measured. Insights about the audience who saw the ads and content can be derived. Such data can be used to develop or improve user’s experience, systems and software.

By clicking ‘I Agree’ you will allow the use of indicated cookies, device identifiers, web beacons or other similar technologies. Your settings can be changed in the browser on your device.

For certain purposes, legitimate interests may be relied on, rather than consent. You can read more about this in our Privacy and Cookie Policy.